Weather History for Milwaukee Timmerman, WI

Change the Weather History Date:

Friday, January 10, 2014

  Actual Average Record
Temperature  
Mean Temperature 30 °F -  
Max Temperature 37 °F 25 °F 52 °F (1975)
Min Temperature 24 °F 10 °F -24 °F (1982)
Degree Days  
Heating Degree Days 34    
Moisture  
Dew Point 27 °F    
Average Humidity 91    
Maximum Humidity 100    
Minimum Humidity 86    
Precipitation  
Precipitation 0.03 in - - ()
Sea Level Pressure  
Sea Level Pressure 29.86 in    
Wind  
Wind Speed 6 mph (South)    
Max Wind Speed 14 mph    
Max Gust Speed -    
Visibility 4 miles    
Events Fog , Rain    
Averages and records for this station are not official NWS values.
T = Trace of Precipitation, MM = Missing Value Source: NWS Daily Summary

Daily Weather History Graph

Daily Weather History Graph

Search for Another Location

Airport:

Trip Planner

Search our weather history database for the weather conditions in past years. The results will help you decide how hot, cold, wet, or windy it might be!

Date:

Astronomy

Jan. 10, 2014 Rise Set
Actual Time 7:22 AM CST 4:36 PM CST
Civil Twilight 6:51 AM CST 5:08 PM CST
Nautical Twilight 6:15 AM CST 5:44 PM CST
Astronomical Twilight 5:41 AM CST 6:18 PM CST
Moon 12:42 PM CST (1/10) 2:27 AM CST (1/10)
Length of Visible Light 10h 17m
Length of Day
9h 14m
Waxing Gibbous, 75% of the Moon is Illuminated
Jan 10
Waxing Gibbous
Jan 15
Full
Jan 23
Last Quarter
Jan 30
New
Feb 6
First Quarter

Hourly Weather History & Observations

Time (CST) Temp. Windchill Dew Point Humidity Pressure Visibility Wind Dir Wind Speed Gust Speed Precip Events Conditions
12:15 AM 24.8 °F 17.9 °F 21.2 °F 86% 30.12 in 5.0 mi SSW 5.8 mph - N/A   Overcast
12:35 AM 24.8 °F 17.9 °F 21.2 °F 86% 30.11 in 5.0 mi SSW 5.8 mph - N/A   Overcast
12:55 AM 24.8 °F 16.9 °F 21.2 °F 86% 30.11 in 5.0 mi SSW 6.9 mph - N/A   Overcast
1:15 AM 24.8 °F 19.1 °F 21.2 °F 86% 30.10 in 4.0 mi SSW 4.6 mph - N/A   Overcast
1:35 AM 24.8 °F 17.9 °F 21.2 °F 86% 30.09 in 4.0 mi South 5.8 mph - N/A   Overcast
1:55 AM 24.8 °F 19.1 °F 21.2 °F 86% 30.09 in 4.0 mi South 4.6 mph - N/A   Overcast
2:15 AM 24.8 °F 17.9 °F 21.2 °F 86% 30.09 in 3.0 mi South 5.8 mph - N/A   Overcast
2:35 AM 24.8 °F 17.9 °F 23.0 °F 93% 30.09 in 3.0 mi South 5.8 mph - N/A   Overcast
2:55 AM 24.8 °F 17.9 °F 23.0 °F 93% 30.08 in 3.0 mi South 5.8 mph - N/A   Overcast
3:15 AM 24.8 °F 19.1 °F 23.0 °F 93% 30.08 in 3.0 mi SSW 4.6 mph - N/A   Overcast
3:35 AM 26.6 °F 20.0 °F 23.0 °F 86% 30.07 in 2.5 mi SSW 5.8 mph - N/A   Overcast
3:55 AM 26.6 °F 21.2 °F 23.0 °F 86% 30.07 in 2.0 mi SSW 4.6 mph - N/A   Overcast
4:15 AM 26.6 °F 21.2 °F 23.0 °F 86% 30.06 in 2.0 mi South 4.6 mph - N/A   Overcast
4:35 AM 26.6 °F 22.6 °F 23.0 °F 86% 30.05 in 2.0 mi South 3.5 mph - N/A   Overcast
4:55 AM 26.6 °F 20.0 °F 23.0 °F 86% 30.06 in 1.8 mi South 5.8 mph - N/A   Overcast
5:15 AM 26.6 °F 22.6 °F 23.0 °F 86% 30.05 in 1.5 mi South 3.5 mph - N/A   Overcast
5:35 AM 26.6 °F 21.2 °F 24.8 °F 93% 30.04 in 1.5 mi South 4.6 mph - N/A   Overcast
5:55 AM 26.6 °F 21.2 °F 24.8 °F 93% 30.04 in 1.5 mi South 4.6 mph - N/A   Overcast
6:15 AM 26.6 °F 20.0 °F 24.8 °F 93% 30.05 in 1.5 mi South 5.8 mph - N/A   Overcast
6:35 AM 26.6 °F 21.2 °F 24.8 °F 93% 30.04 in 1.5 mi South 4.6 mph - N/A   Overcast
6:45 AM 26.6 °F 20.0 °F 24.8 °F 93% 30.04 in 1.0 mi South 5.8 mph - N/A   Overcast
7:45 AM 26.6 °F 20.0 °F 24.8 °F 93% 30.03 in 0.5 mi SSE 5.8 mph - N/A Fog Fog
8:45 AM 28.4 °F 22.2 °F 26.6 °F 93% 30.02 in 0.2 mi SSE 5.8 mph - N/A Fog Light Freezing Fog
9:45 AM 28.4 °F 20.4 °F 26.6 °F 93% 29.99 in 3.0 mi South 8.1 mph - N/A   Overcast
10:45 AM 30.2 °F 22.6 °F 26.6 °F 86% 29.96 in 7.0 mi SSE 8.1 mph - N/A   Overcast
11:45 AM 32.0 °F 24.2 °F 28.4 °F 87% 29.90 in 5.0 mi SSE 9.2 mph - N/A   Overcast
12:45 PM 32.0 °F 24.8 °F 28.4 °F 87% 29.84 in 3.0 mi SE 8.1 mph - N/A   Overcast
1:45 PM 32.0 °F 25.6 °F 30.2 °F 93% 29.81 in 1.8 mi SE 6.9 mph - N/A   Overcast
2:45 PM 32.0 °F 24.2 °F 30.2 °F 93% 29.76 in - SE 9.2 mph - N/A   Overcast
3:45 PM 32.0 °F 24.8 °F 30.2 °F 93% 29.73 in 1.2 mi SE 8.1 mph - N/A   Overcast
4:45 PM 33.8 °F 27.7 °F 30.2 °F 87% 29.68 in 2.5 mi SE 6.9 mph - N/A Rain Rain
5:45 PM 35.6 °F 26.6 °F 32.0 °F 87% 29.63 in 4.0 mi SSE 13.8 mph - N/A Rain Rain
8:15 PM 33.8 °F 27.7 °F 32.0 °F 93% 29.54 in 7.0 mi South 6.9 mph - N/A   Drizzle
8:35 PM 33.8 °F 29.6 °F 32.0 °F 93% 29.53 in 5.0 mi South 4.6 mph - 0.01 in   Drizzle
8:55 PM 33.8 °F 29.6 °F 33.8 °F 100% 29.52 in 4.0 mi SSW 4.6 mph - 0.01 in   Drizzle
9:15 PM 35.6 °F 29.9 °F 33.8 °F 93% 29.51 in 4.0 mi South 6.9 mph - N/A Rain Rain
9:35 PM 35.6 °F 29.9 °F 33.8 °F 93% 29.51 in 4.0 mi SSW 6.9 mph - 0.01 in Rain Rain
9:55 PM 35.6 °F 29.9 °F 35.6 °F 100% 29.50 in 7.0 mi SSW 6.9 mph - 0.01 in   Drizzle
10:15 PM 37.4 °F 30.8 °F 35.6 °F 93% 29.50 in 7.0 mi SSW 9.2 mph - N/A Rain Light Rain
10:35 PM 37.4 °F 30.3 °F 35.6 °F 93% 29.49 in 5.0 mi SSW 10.4 mph - N/A   Drizzle
10:55 PM 37.4 °F 30.8 °F 35.6 °F 93% 29.48 in 10.0 mi South 9.2 mph - N/A   Overcast
11:15 PM 37.4 °F 30.8 °F 35.6 °F 93% 29.48 in 5.0 mi SSW 9.2 mph - N/A   Drizzle
11:35 PM 37.4 °F 31.4 °F 35.6 °F 93% 29.47 in 7.0 mi SSW 8.1 mph - 0.01 in Rain Rain
11:55 PM 37.4 °F 30.3 °F 35.6 °F 93% 29.48 in 7.0 mi SSW 10.4 mph - 0.01 in   Overcast